Flag for Belgium Weather past 2 weeks in Leuven, Belgium

Now
54 °F

Scattered clouds.


Feels Like: 50 °F
Forecast: 37 / 58 °F
Wind: 12 mph from North

Location: Brussels National Airport


UV Index: 3 (Moderate)

Visibility: N/A


Pressure: 30.04 "Hg

Humidity: 51%

Dew point: 36 °F

Location of LeuvenLocation

Historic Weather in Leuven

°F

Leuven temperature yesterday

Maximum temperature yesterday: 64 °F (at 3:50 PM)
Minimum temperature yesterday: 41 °F (at 3:50 AM)
Average temperature yesterday: 53 °F

Past Weeks' High & Low Weather Summary

 TemperatureHumidityPressure
High70 °F (Apr 7, 2:20 PM)100% (Apr 12, 7:20 AM)30.42 "Hg (Apr 12, 7:20 AM)
Low34 °F (Apr 16, 5:50 AM)3% (Apr 15, 8:20 AM)29.62 "Hg (Apr 3, 2:20 PM)
Average52 °F69%30.09 "Hg
* Reported Apr 3 2:20 PM — Apr 18 2:20 PM, Leuven, Weather by CustomWeather, © 2014

Note: Actual official high and low records may vary slightly from our data, if they occured in-between our weather recording intervals... More about our weather records

Advertising

Historic Weather Conditions — Data for Previous 24 hours

 ConditionsComfort  
Time TempWeatherWind HumidityBarometerVisibility
2:20 PM
Apr 18
52 °FScattered clouds.13 mph50%30.04 "HgN/A
1:50 PM52 °FScattered clouds.14 mph54%30.04 "HgN/A
1:20 PM50 °FPassing clouds.15 mph54%30.04 "HgN/A
12:50 PM52 °FScattered clouds.15 mph47%30.04 "HgN/A
12:20 PM50 °FScattered clouds.12 mph54%30.04 "HgN/A
11:50 AM50 °FScattered clouds.12 mph54%30.04 "HgN/A
11:20 AM48 °FScattered clouds.12 mph66%30.04 "HgN/A
10:50 AM50 °FScattered clouds.9 mph58%30.04 "HgN/A
10:20 AM48 °FScattered clouds.10 mph66%30.01 "HgN/A
9:50 AM45 °FScattered clouds.8 mph81%30.01 "HgN/A
9:20 AM48 °FScattered showers. Partly sunny.14 mph71%30.01 "HgN/A
8:50 AM48 °FScattered clouds.7 mph76%30.01 "HgN/A
8:20 AM46 °FPassing clouds.6 mph82%30.01 "HgN/A
7:50 AM45 °FPassing clouds.6 mph81%30.01 "HgN/A
7:20 AM43 °FPassing clouds.5 mph87%29.98 "HgN/A
6:50 AM43 °FClear.6 mph87%29.98 "Hg10 mi
6:20 AM43 °FClear.6 mph87%29.98 "Hg10 mi
5:50 AM43 °FClear.5 mph87%29.98 "Hg10 mi
5:20 AM43 °FClear.5 mph87%29.98 "Hg10 mi
4:50 AM45 °FPassing clouds.5 mph87%29.98 "HgN/A
4:20 AM46 °FClear.6 mph87%29.98 "Hg10 mi
3:50 AM48 °FPassing clouds.8 mph82%29.98 "HgN/A
3:20 AM48 °FPassing clouds.6 mph82%29.95 "HgN/A
2:50 AM48 °FPassing clouds.1 mph82%29.98 "HgN/A
2:20 AM46 °FPassing clouds.2 mph87%29.98 "HgN/A
1:50 AM46 °FPassing clouds.3 mph93%29.98 "HgN/A
1:20 AM46 °FLight rain. Passing clouds.6 mph93%29.98 "Hg4 mi
12:50 AM48 °FLight rain. Passing clouds.13 mph87%30.01 "Hg4 mi
12:20 AM50 °FLight rain. Passing clouds.14 mph88%29.98 "Hg5 mi
11:50 PM
Apr 17
50 °FLight rain. Passing clouds.7 mph88%29.98 "Hg5 mi
11:20 PM50 °FLight rain. Clear.6 mph88%29.98 "Hg5 mi
10:50 PM52 °FLight rain. Passing clouds.10 mph72%30.01 "Hg5 mi
10:20 PM55 °FPassing clouds.12 mph55%29.98 "HgN/A
9:50 PM57 °FClear.10 mph51%29.98 "Hg10 mi
9:20 PM57 °FSunny.12 mph51%29.98 "Hg10 mi
8:50 PM59 °FSunny.14 mph42%29.98 "Hg10 mi
8:20 PM61 °FSunny.9 mph39%29.98 "Hg10 mi
7:50 PM61 °FSunny.9 mph39%29.98 "Hg10 mi
6:50 PM61 °FSunny.12 mph36%30.01 "Hg10 mi
6:20 PM61 °FSunny.13 mph36%30.01 "Hg10 mi
5:50 PM61 °FSunny.13 mph36%30.01 "Hg10 mi
5:20 PM61 °FPassing clouds.10 mph34%30.04 "HgN/A
4:50 PM63 °FSunny.14 mph32%30.04 "Hg10 mi
4:20 PM63 °FPassing clouds.14 mph32%30.07 "HgN/A
3:50 PM64 °FPassing clouds.9 mph30%30.07 "HgN/A
3:20 PM63 °FSunny.10 mph34%30.07 "Hg10 mi
Weather by CustomWeather, © 2014

See weather overview